Abilene Dyess, TX

7:22 PM CST on November 20, 2019 (GMT -0600)
Dyess Air Force Base

Weather History for KDYS - October, 2019

Change the Weather History Date:

Wednesday, October 23, 2019

  Actual Average Record
Temperature  
Mean Temperature 68 °F -  
Max Temperature 84 °F 73 °F 91 °F (2001)
Min Temperature 54 °F 54 °F 34 °F (2008)
Cooling Degree Days 4    
Growing Degree Days 18 (Base 50)    
Moisture  
Dew Point 43 °F    
Average Humidity 41    
Maximum Humidity 56    
Minimum Humidity 27    
Precipitation  
Precipitation 0.00 in - - ()
Sea Level Pressure  
Sea Level Pressure 29.86 in    
Wind  
Wind Speed 15 mph (SSE)    
Max Wind Speed 26 mph    
Max Gust Speed 36 mph    
Visibility 10 miles    
Events      
Averages and records for this station are not official NWS values.
T = Trace of Precipitation, MM = Missing Value Source: NWS Daily Summary

Daily Weather History Graph

Daily Weather History Graph

Search for Another Location

Airport or City:

Astronomy

Oct. 23, 2019 Rise Set
Actual Time 7:49 AM CDT 6:57 PM CDT
Civil Twilight 7:24 AM CDT 7:22 PM CDT
Nautical Twilight 6:55 AM CDT 7:51 PM CDT
Astronomical Twilight 6:26 AM CDT 8:20 PM CDT
Moon 2:34 AM CDT (10/23) 4:27 PM CDT (10/23)
Length of Visible Light 11h 58m
Length of Day
11h 08m
Waning Crescent, 26% of the Moon is Illuminated
Oct 23
Waning Crescent
Oct 27
New
Nov 4
First Quarter
Nov 12
Full
Nov 19
Last Quarter

Hourly Weather History & Observations

Time (CDT) Temp. Dew Point Humidity Pressure Visibility Wind Dir Wind Speed Gust Speed Precip Events Conditions
12:56 AM 57.7 °F 29.5 °F 34% 29.94 in 10.0 mi SSE 12.7 mph - N/A   Clear
1:56 AM 54.5 °F 30.0 °F 39% 29.96 in 10.0 mi SE 8.1 mph - N/A   Clear
2:56 AM 54.3 °F 30.6 °F 40% 29.94 in 10.0 mi ESE 3.5 mph - N/A   Clear
3:56 AM 59.2 °F 29.3 °F 32% 29.91 in 10.0 mi SSE 19.6 mph - N/A   Clear
4:56 AM 59.5 °F 30.4 °F 33% 29.89 in 10.0 mi South 20.7 mph - N/A   Clear
5:37 AM 59.0 °F 32.0 °F 36% 29.88 in 10.0 mi South 21.9 mph 32.2 mph N/A   Clear
5:56 AM 59.9 °F 31.5 °F 34% 29.88 in 10.0 mi South 21.9 mph 31.1 mph N/A   Clear
6:56 AM 59.4 °F 38.7 °F 46% 29.91 in 10.0 mi South 23.0 mph 29.9 mph N/A   Clear
7:56 AM 59.0 °F 42.8 °F 55% 29.91 in 10.0 mi South 20.7 mph 29.9 mph N/A   Clear
8:56 AM 61.3 °F 45.5 °F 56% 29.92 in 10.0 mi South 21.9 mph 31.1 mph N/A   Clear
9:56 AM 64.9 °F 47.8 °F 54% 29.93 in 10.0 mi South 20.7 mph 31.1 mph N/A   Clear
10:56 AM 69.3 °F 49.3 °F 49% 29.91 in 10.0 mi South 26.5 mph 35.7 mph N/A   Clear
11:56 AM 73.8 °F 50.5 °F 44% 29.90 in 10.0 mi South 19.6 mph 28.8 mph N/A   Clear
12:56 PM 77.5 °F 49.8 °F 38% 29.87 in 10.0 mi South 20.7 mph 25.3 mph N/A   Clear
1:56 PM 80.6 °F 48.7 °F 33% 29.83 in 10.0 mi SSW 16.1 mph 23.0 mph N/A   Clear
2:56 PM 82.2 °F 47.7 °F 30% 29.79 in 10.0 mi South 16.1 mph 25.3 mph N/A   Clear
3:56 PM 83.3 °F 47.7 °F 29% 29.77 in 10.0 mi South 16.1 mph 28.8 mph N/A   Clear
4:56 PM 83.8 °F 47.3 °F 28% 29.75 in 10.0 mi SSE 18.4 mph 26.5 mph N/A   Clear
5:56 PM 83.7 °F 46.0 °F 27% 29.75 in 10.0 mi SSW 15.0 mph 19.6 mph N/A   Clear
6:56 PM 78.4 °F 46.9 °F 33% 29.76 in 10.0 mi South 8.1 mph - N/A   Clear
7:56 PM 70.5 °F 48.7 °F 46% 29.80 in 10.0 mi SSE 6.9 mph - N/A   Clear
8:56 PM 66.4 °F 49.3 °F 54% 29.81 in 10.0 mi SSE 8.1 mph - N/A   Clear
9:56 PM 69.1 °F 51.3 °F 53% 29.81 in 10.0 mi SSE 12.7 mph - N/A   Clear
10:56 PM 69.4 °F 52.0 °F 54% 29.82 in 10.0 mi SSE 11.5 mph - N/A   Clear
11:56 PM 68.9 °F 52.5 °F 56% 29.82 in 10.0 mi SSE 11.5 mph - N/A   Clear